User: anonymous   Login
Location: Albany
(35.0000°S, 118.0000°E)
Time: 03:57:52
(UTC-05:00)
Language:

Cosmos 1346 Rocket - Orbit

View from above orbital plane
View from above orbital plane
View from above satellite
View from above satellite

Ground track
Ground track

The orbit data is extracted from the following two-line orbital elements,

1 13121U 82027B   17055.48356884  .00001259  00000-0  79301-4 0  9992
2 13121  81.1658 248.6477 0026728 183.3522 176.7528 15.08198409899991
Epoch (UTC): 24 February 2017 11:36:20
Eccentricity: 0.0026728
inclination: 81.1658°
perigee height: 523 km
apogee height: 560 km
right ascension of ascending node: 248.6477°
argument of perigee: 183.3522°
revolutions per day: 15.08198409
mean anomaly at epoch: 176.7528°
orbit number at epoch: 89999

The dashed part of the orbit path shows where the satellite is in the earth's shadow,  

DLR